Year,Month,Day,Hour,Minute,Value (Times are PST for temperature in C)
2006,10,13,00,00,10.90
2006,10,13,00,01,10.90
2006,10,13,00,02,10.90
2006,10,13,00,03,10.90
2006,10,13,00,04,10.90
2006,10,13,00,05,10.90
2006,10,13,00,06,10.90
2006,10,13,00,07,10.90
2006,10,13,00,08,10.90
2006,10,13,00,09,10.90
2006,10,13,00,10,10.90
2006,10,13,00,11,10.90
2006,10,13,00,12,10.90
2006,10,13,00,13,10.90
2006,10,13,00,14,10.90
2006,10,13,00,15,10.90
2006,10,13,00,16,10.90
2006,10,13,00,17,10.90
2006,10,13,00,18,10.90
2006,10,13,00,19,11.00
2006,10,13,00,20,11.10
2006,10,13,00,21,11.10
2006,10,13,00,22,11.10
2006,10,13,00,23,11.10
2006,10,13,00,24,11.10
2006,10,13,00,25,11.10
2006,10,13,00,26,11.10
2006,10,13,00,27,11.10
2006,10,13,00,28,11.10
2006,10,13,00,29,11.10
2006,10,13,00,30,11.10
2006,10,13,00,31,11.10
2006,10,13,00,32,11.10
2006,10,13,00,33,11.10
2006,10,13,00,34,11.10
2006,10,13,00,35,11.10
2006,10,13,00,36,11.10
2006,10,13,00,37,11.10
2006,10,13,00,38,11.10
2006,10,13,00,39,11.10
2006,10,13,00,40,11.10
2006,10,13,00,41,10.90
2006,10,13,00,42,10.90
2006,10,13,00,43,10.90
2006,10,13,00,44,10.90
2006,10,13,00,45,10.90
2006,10,13,00,46,10.90
2006,10,13,00,47,10.90
2006,10,13,00,48,10.90
2006,10,13,00,49,10.80
2006,10,13,00,50,10.80
2006,10,13,00,51,10.70
2006,10,13,00,52,10.70
2006,10,13,00,53,10.60
2006,10,13,00,54,10.60
2006,10,13,00,55,10.60
2006,10,13,00,56,10.60
2006,10,13,00,57,10.60
2006,10,13,00,58,10.60
2006,10,13,00,59,10.60
2006,10,13,01,00,10.60
2006,10,13,01,01,10.60
2006,10,13,01,02,10.60
2006,10,13,01,03,10.50
2006,10,13,01,04,10.40
2006,10,13,01,05,10.50
2006,10,13,01,06,10.40
2006,10,13,01,07,10.40
2006,10,13,01,08,10.40
2006,10,13,01,09,10.40
2006,10,13,01,10,10.60
2006,10,13,01,11,10.60
2006,10,13,01,12,10.60
2006,10,13,01,13,10.60
2006,10,13,01,14,10.60
2006,10,13,01,15,10.60
2006,10,13,01,16,10.60
2006,10,13,01,17,10.60
2006,10,13,01,18,10.60
2006,10,13,01,19,10.60
2006,10,13,01,20,10.60
2006,10,13,01,21,10.60
2006,10,13,01,22,10.60
2006,10,13,01,23,10.60
2006,10,13,01,24,10.60
2006,10,13,01,25,10.60
2006,10,13,01,26,10.60
2006,10,13,01,27,10.50
2006,10,13,01,28,10.40
2006,10,13,01,29,10.40
2006,10,13,01,30,10.40
2006,10,13,01,31,10.40
2006,10,13,01,32,10.40
2006,10,13,01,33,10.40
2006,10,13,01,34,10.40
2006,10,13,01,35,10.40
2006,10,13,01,36,10.40
2006,10,13,01,37,10.40
2006,10,13,01,38,10.40
2006,10,13,01,39,10.40
2006,10,13,01,40,10.40
2006,10,13,01,41,10.40
2006,10,13,01,42,10.40
2006,10,13,01,43,10.40
2006,10,13,01,44,10.40
2006,10,13,01,45,10.40
2006,10,13,01,46,10.40
2006,10,13,01,47,10.40
2006,10,13,01,48,10.40
2006,10,13,01,49,10.40
2006,10,13,01,50,10.40
2006,10,13,01,51,10.40
2006,10,13,01,52,10.40
2006,10,13,01,53,10.40
2006,10,13,01,54,10.30
2006,10,13,01,55,10.30
2006,10,13,01,56,10.20
2006,10,13,01,57,10.20
2006,10,13,01,58,10.20
2006,10,13,01,59,10.10
2006,10,13,02,00,10.10
2006,10,13,02,01,10.10
2006,10,13,02,02,10.10
2006,10,13,02,03,10.10
2006,10,13,02,04,10.10
2006,10,13,02,05,10.10
2006,10,13,02,06,10.10
2006,10,13,02,07,10.10
2006,10,13,02,08,10.10
2006,10,13,02,09,9.90
2006,10,13,02,10,9.90
2006,10,13,02,11,9.90
2006,10,13,02,12,9.90
2006,10,13,02,13,9.90
2006,10,13,02,14,9.90
2006,10,13,02,15,9.90
2006,10,13,02,16,9.80
2006,10,13,02,17,9.80
2006,10,13,02,18,9.80
2006,10,13,02,19,9.80
2006,10,13,02,20,9.80
2006,10,13,02,21,9.80
2006,10,13,02,22,9.80
2006,10,13,02,23,9.80
2006,10,13,02,24,9.80
2006,10,13,02,25,9.80
2006,10,13,02,26,9.80
2006,10,13,02,27,9.90
2006,10,13,02,28,9.90
2006,10,13,02,29,9.90
2006,10,13,02,30,9.90
2006,10,13,02,31,9.90
2006,10,13,02,32,9.90
2006,10,13,02,33,9.90
2006,10,13,02,34,9.90
2006,10,13,02,35,9.90
2006,10,13,02,36,9.90
2006,10,13,02,37,9.90
2006,10,13,02,38,9.90
2006,10,13,02,39,9.90
2006,10,13,02,40,9.90
2006,10,13,02,41,9.90
2006,10,13,02,42,9.90
2006,10,13,02,43,9.90
2006,10,13,02,44,9.90
2006,10,13,02,45,9.90
2006,10,13,02,46,9.90
2006,10,13,02,47,9.90
2006,10,13,02,48,9.90
2006,10,13,02,49,9.90
2006,10,13,02,50,9.90
2006,10,13,02,51,9.80
2006,10,13,02,52,9.80
2006,10,13,02,53,9.80
2006,10,13,02,54,9.80
2006,10,13,02,55,9.80
2006,10,13,02,56,9.80
2006,10,13,02,57,9.80
2006,10,13,02,58,9.80
2006,10,13,02,59,9.80
2006,10,13,03,00,9.80
2006,10,13,03,01,9.80
2006,10,13,03,02,9.70
2006,10,13,03,03,9.70
2006,10,13,03,04,9.70
2006,10,13,03,05,9.70
2006,10,13,03,06,9.70
2006,10,13,03,07,9.70
2006,10,13,03,08,9.70
2006,10,13,03,09,9.70
2006,10,13,03,10,9.70
2006,10,13,03,11,9.70
2006,10,13,03,12,9.70
2006,10,13,03,13,9.70
2006,10,13,03,14,9.70
2006,10,13,03,15,9.70
2006,10,13,03,16,9.60
2006,10,13,03,17,9.60
2006,10,13,03,18,9.60
2006,10,13,03,19,9.60
2006,10,13,03,20,9.60
2006,10,13,03,21,9.50
2006,10,13,03,22,9.50
2006,10,13,03,23,9.50
2006,10,13,03,24,9.50
2006,10,13,03,25,9.50
2006,10,13,03,26,9.50
2006,10,13,03,27,9.50
2006,10,13,03,28,9.50
2006,10,13,03,29,9.50
2006,10,13,03,30,9.50
2006,10,13,03,31,9.50
2006,10,13,03,32,9.50
2006,10,13,03,33,9.50
2006,10,13,03,34,9.50
2006,10,13,03,35,9.50
2006,10,13,03,36,9.50
2006,10,13,03,37,9.60
2006,10,13,03,38,9.60
2006,10,13,03,39,9.60
2006,10,13,03,40,9.60
2006,10,13,03,41,9.60
2006,10,13,03,42,9.60
2006,10,13,03,43,9.60
2006,10,13,03,44,9.60
2006,10,13,03,45,9.50
2006,10,13,03,46,9.50
2006,10,13,03,47,9.50
2006,10,13,03,48,9.50
2006,10,13,03,49,9.50
2006,10,13,03,50,9.50
2006,10,13,03,51,9.50
2006,10,13,03,52,9.50
2006,10,13,03,53,9.40
2006,10,13,03,54,9.40
2006,10,13,03,55,9.40
2006,10,13,03,56,9.40
2006,10,13,03,57,9.40
2006,10,13,03,58,9.40
2006,10,13,03,59,9.30
2006,10,13,04,00,9.30
2006,10,13,04,01,9.30
2006,10,13,04,02,9.30
2006,10,13,04,03,9.30
2006,10,13,04,04,9.30
2006,10,13,04,05,9.20
2006,10,13,04,06,9.20
2006,10,13,04,07,9.20
2006,10,13,04,08,9.20
2006,10,13,04,09,9.20
2006,10,13,04,10,9.20
2006,10,13,04,11,9.20
2006,10,13,04,12,9.20
2006,10,13,04,13,9.20
2006,10,13,04,14,9.20
2006,10,13,04,15,9.20
2006,10,13,04,16,9.20
2006,10,13,04,17,9.10
2006,10,13,04,18,9.10
2006,10,13,04,19,9.00
2006,10,13,04,20,9.00
2006,10,13,04,21,9.00
2006,10,13,04,22,9.00
2006,10,13,04,23,9.00
2006,10,13,04,24,9.00
2006,10,13,04,25,9.00
2006,10,13,04,26,9.00
2006,10,13,04,27,9.00
2006,10,13,04,28,9.00
2006,10,13,04,29,9.00
2006,10,13,04,30,9.00
2006,10,13,04,31,8.90
2006,10,13,04,32,8.90
2006,10,13,04,33,8.80
2006,10,13,04,34,8.80
2006,10,13,04,35,8.80
2006,10,13,04,36,8.80
2006,10,13,04,37,8.70
2006,10,13,04,38,8.70
2006,10,13,04,39,8.70
2006,10,13,04,40,8.70
2006,10,13,04,41,8.70
2006,10,13,04,42,8.70
2006,10,13,04,43,8.60
2006,10,13,04,44,8.60
2006,10,13,04,45,8.60
2006,10,13,04,46,8.60
2006,10,13,04,47,8.50
2006,10,13,04,48,8.50
2006,10,13,04,49,8.50
2006,10,13,04,50,8.50
2006,10,13,04,51,8.50
2006,10,13,04,52,8.50
2006,10,13,04,53,8.50
2006,10,13,04,54,8.50
2006,10,13,04,55,8.50
2006,10,13,04,56,8.50
2006,10,13,04,57,8.50
2006,10,13,04,58,8.50
2006,10,13,04,59,8.60
2006,10,13,05,00,8.70
2006,10,13,05,01,8.70
2006,10,13,05,02,8.70
2006,10,13,05,03,8.70
2006,10,13,05,04,8.70
2006,10,13,05,05,8.70
2006,10,13,05,06,8.70
2006,10,13,05,07,8.70
2006,10,13,05,08,8.70
2006,10,13,05,09,8.60
2006,10,13,05,10,8.60
2006,10,13,05,11,8.50
2006,10,13,05,12,8.50
2006,10,13,05,13,8.50
2006,10,13,05,14,8.40
2006,10,13,05,15,8.30
2006,10,13,05,16,8.30
2006,10,13,05,17,8.20
2006,10,13,05,18,8.20
2006,10,13,05,19,8.20
2006,10,13,05,20,8.20
2006,10,13,05,21,8.20
2006,10,13,05,22,8.20
2006,10,13,05,23,8.20
2006,10,13,05,24,8.10
2006,10,13,05,25,8.10
2006,10,13,05,26,8.10
2006,10,13,05,27,8.10
2006,10,13,05,28,8.10
2006,10,13,05,29,8.00
2006,10,13,05,30,8.00
2006,10,13,05,31,8.00
2006,10,13,05,32,8.00
2006,10,13,05,33,8.10
2006,10,13,05,34,8.10
2006,10,13,05,35,8.20
2006,10,13,05,36,8.20
2006,10,13,05,37,8.20
2006,10,13,05,38,8.20
2006,10,13,05,39,8.20
2006,10,13,05,40,8.20
2006,10,13,05,41,8.20
2006,10,13,05,42,8.20
2006,10,13,05,43,8.30
2006,10,13,05,44,8.30
2006,10,13,05,45,8.30
2006,10,13,05,46,8.30
2006,10,13,05,47,8.30
2006,10,13,05,48,8.20
2006,10,13,05,49,8.20
2006,10,13,05,50,8.20
2006,10,13,05,51,8.20
2006,10,13,05,52,8.20
2006,10,13,05,53,8.20
2006,10,13,05,54,8.20
2006,10,13,05,55,8.20
2006,10,13,05,56,8.20
2006,10,13,05,57,8.20
2006,10,13,05,58,8.20
2006,10,13,05,59,8.20
2006,10,13,06,00,8.20
2006,10,13,06,01,8.20
2006,10,13,06,02,8.20
2006,10,13,06,03,8.20
2006,10,13,06,04,8.20
2006,10,13,06,05,8.20
2006,10,13,06,06,8.20
2006,10,13,06,07,8.20
2006,10,13,06,08,8.20
2006,10,13,06,09,8.20
2006,10,13,06,10,8.20
2006,10,13,06,11,8.20
2006,10,13,06,12,8.20
2006,10,13,06,13,8.20
2006,10,13,06,14,8.20
2006,10,13,06,15,8.20
2006,10,13,06,16,8.20
2006,10,13,06,17,8.20
2006,10,13,06,18,8.30
2006,10,13,06,19,8.30
2006,10,13,06,20,8.40
2006,10,13,06,21,8.40
2006,10,13,06,22,8.40
2006,10,13,06,23,8.40
2006,10,13,06,24,8.40
2006,10,13,06,25,8.40
2006,10,13,06,26,8.50
2006,10,13,06,27,8.50
2006,10,13,06,28,8.50
2006,10,13,06,29,8.50
2006,10,13,06,30,8.50
2006,10,13,06,31,8.50
2006,10,13,06,32,8.60
2006,10,13,06,33,8.60
2006,10,13,06,34,8.60
2006,10,13,06,35,8.60
2006,10,13,06,36,8.60
2006,10,13,06,37,8.60
2006,10,13,06,38,8.60
2006,10,13,06,39,8.60
2006,10,13,06,40,8.60
2006,10,13,06,41,8.60
2006,10,13,06,42,8.60
2006,10,13,06,43,8.60
2006,10,13,06,44,8.60
2006,10,13,06,45,8.60
2006,10,13,06,46,8.60
2006,10,13,06,47,8.60
2006,10,13,06,48,8.50
2006,10,13,06,49,8.50
2006,10,13,06,50,8.50
2006,10,13,06,51,8.50
2006,10,13,06,52,8.50
2006,10,13,06,53,8.50
2006,10,13,06,54,8.60
2006,10,13,06,55,8.60
2006,10,13,06,56,8.60
2006,10,13,06,57,8.70
2006,10,13,06,58,8.70
2006,10,13,06,59,8.70
2006,10,13,07,00,8.70
2006,10,13,07,01,8.70
2006,10,13,07,02,8.80
2006,10,13,07,03,8.80
2006,10,13,07,04,8.90
2006,10,13,07,05,8.90
2006,10,13,07,06,8.90
2006,10,13,07,07,8.80
2006,10,13,07,08,8.80
2006,10,13,07,09,8.80
2006,10,13,07,10,8.90
2006,10,13,07,11,8.90
2006,10,13,07,12,8.90
2006,10,13,07,13,8.90
2006,10,13,07,14,8.80
2006,10,13,07,15,8.80
2006,10,13,07,16,8.70
2006,10,13,07,17,8.70
2006,10,13,07,18,8.70
2006,10,13,07,19,8.70
2006,10,13,07,20,8.70
2006,10,13,07,21,8.70
2006,10,13,07,22,8.70
2006,10,13,07,23,8.70
2006,10,13,07,24,8.60
2006,10,13,07,25,8.60
2006,10,13,07,26,8.60
2006,10,13,07,27,8.60
2006,10,13,07,28,8.60
2006,10,13,07,29,8.60
2006,10,13,07,30,8.60
2006,10,13,07,31,8.60
2006,10,13,07,32,8.70
2006,10,13,07,33,8.70
2006,10,13,07,34,8.70
2006,10,13,07,35,8.70
2006,10,13,07,36,8.80
2006,10,13,07,37,8.80
2006,10,13,07,38,8.80
2006,10,13,07,39,8.80
2006,10,13,07,40,8.80
2006,10,13,07,41,8.80
2006,10,13,07,42,8.80
2006,10,13,07,43,8.80
2006,10,13,07,44,8.80
2006,10,13,07,45,8.90
2006,10,13,07,46,8.90
2006,10,13,07,47,8.90
2006,10,13,07,48,8.90
2006,10,13,07,49,8.90
2006,10,13,07,50,8.90
2006,10,13,07,51,8.90
2006,10,13,07,52,8.90
2006,10,13,07,53,9.00
2006,10,13,07,54,9.00
2006,10,13,07,55,9.00
2006,10,13,07,56,9.10
2006,10,13,07,57,9.10
2006,10,13,07,58,9.20
2006,10,13,07,59,9.20
2006,10,13,08,00,9.20
2006,10,13,08,01,9.20
2006,10,13,08,02,9.20
2006,10,13,08,03,9.20
2006,10,13,08,04,9.20
2006,10,13,08,05,9.20
2006,10,13,08,06,9.20
2006,10,13,08,07,9.20
2006,10,13,08,08,9.20
2006,10,13,08,09,9.20
2006,10,13,08,10,9.20
2006,10,13,08,11,9.20
2006,10,13,08,12,9.20
2006,10,13,08,13,9.20
2006,10,13,08,14,9.20
2006,10,13,08,15,9.20
2006,10,13,08,16,9.20
2006,10,13,08,17,9.30
2006,10,13,08,18,9.30
2006,10,13,08,19,9.30
2006,10,13,08,20,9.40
2006,10,13,08,21,9.40
2006,10,13,08,22,9.40
2006,10,13,08,23,9.40
2006,10,13,08,24,9.40
2006,10,13,08,25,9.40
2006,10,13,08,26,9.40
2006,10,13,08,27,9.40
2006,10,13,08,28,9.40
2006,10,13,08,29,9.40
2006,10,13,08,30,9.40
2006,10,13,08,31,9.40
2006,10,13,08,32,9.40
2006,10,13,08,33,9.50
2006,10,13,08,34,9.50
2006,10,13,08,35,9.60
2006,10,13,08,36,9.70
2006,10,13,08,37,9.70
2006,10,13,08,38,9.70
2006,10,13,08,39,9.80
2006,10,13,08,40,9.90
2006,10,13,08,41,9.90
2006,10,13,08,42,10.00
2006,10,13,08,43,10.10
2006,10,13,08,44,10.10
2006,10,13,08,45,10.20
2006,10,13,08,46,10.20
2006,10,13,08,47,10.30
2006,10,13,08,48,10.40
2006,10,13,08,49,10.50
2006,10,13,08,50,10.60
2006,10,13,08,51,10.60
2006,10,13,08,52,10.70
2006,10,13,08,53,10.70
2006,10,13,08,54,10.80
2006,10,13,08,55,10.80
2006,10,13,08,56,10.80
2006,10,13,08,57,10.90
2006,10,13,08,58,10.90
2006,10,13,08,59,10.90
2006,10,13,09,00,10.90
2006,10,13,09,01,10.90
2006,10,13,09,02,10.90
2006,10,13,09,03,10.90
2006,10,13,09,04,10.90
2006,10,13,09,05,10.90
2006,10,13,09,06,10.90
2006,10,13,09,07,11.00
2006,10,13,09,08,11.10
2006,10,13,09,09,11.10
2006,10,13,09,10,11.20
2006,10,13,09,11,11.20
2006,10,13,09,12,11.30
2006,10,13,09,13,11.40
2006,10,13,09,14,11.50
2006,10,13,09,15,11.60
2006,10,13,09,16,11.60
2006,10,13,09,17,11.70
2006,10,13,09,18,11.80
2006,10,13,09,19,11.90
2006,10,13,09,20,12.00
2006,10,13,09,21,12.00
2006,10,13,09,22,12.10
2006,10,13,09,23,12.10
2006,10,13,09,24,12.20
2006,10,13,09,25,12.30
2006,10,13,09,26,12.30
2006,10,13,09,27,12.30
2006,10,13,09,28,12.40
2006,10,13,09,29,12.40
2006,10,13,09,30,12.40
2006,10,13,09,31,12.40
2006,10,13,09,32,12.50
2006,10,13,09,33,12.50
2006,10,13,09,34,12.50
2006,10,13,09,35,12.50
2006,10,13,09,36,12.50
2006,10,13,09,37,12.40
2006,10,13,09,38,12.40
2006,10,13,09,39,12.30
2006,10,13,09,40,12.30
2006,10,13,09,41,12.30
2006,10,13,09,42,12.20
2006,10,13,09,43,12.10
2006,10,13,09,44,12.00
2006,10,13,09,45,11.90
2006,10,13,09,46,11.80
2006,10,13,09,47,11.80
2006,10,13,09,48,11.80
2006,10,13,09,49,11.80
2006,10,13,09,50,11.80
2006,10,13,09,51,11.80
2006,10,13,09,52,11.80
2006,10,13,09,53,11.80
2006,10,13,09,54,11.80
2006,10,13,09,55,11.80
2006,10,13,09,56,11.80
2006,10,13,09,57,11.80
2006,10,13,09,58,11.90
2006,10,13,09,59,11.90
2006,10,13,10,00,11.90
2006,10,13,10,01,11.90
2006,10,13,10,02,12.00
2006,10,13,10,03,11.90
2006,10,13,10,04,11.90
2006,10,13,10,05,11.90
2006,10,13,10,06,12.00
2006,10,13,10,07,12.00
2006,10,13,10,08,12.00
2006,10,13,10,09,12.00
2006,10,13,10,10,12.10
2006,10,13,10,11,12.10
2006,10,13,10,12,12.20
2006,10,13,10,13,12.20
2006,10,13,10,14,12.30
2006,10,13,10,15,12.30
2006,10,13,10,16,12.30
2006,10,13,10,17,12.30
2006,10,13,10,18,12.30
2006,10,13,10,19,12.30
2006,10,13,10,20,12.50
2006,10,13,10,21,12.50
2006,10,13,10,22,12.60
2006,10,13,10,23,12.60
2006,10,13,10,24,12.70
2006,10,13,10,25,12.70
2006,10,13,10,26,12.80
2006,10,13,10,27,12.80
2006,10,13,10,28,12.80
2006,10,13,10,29,12.90
2006,10,13,10,30,12.90
2006,10,13,10,31,12.90
2006,10,13,10,32,12.90
2006,10,13,10,33,12.90
2006,10,13,10,34,13.00
2006,10,13,10,35,13.00
2006,10,13,10,36,13.00
2006,10,13,10,37,13.10
2006,10,13,10,38,13.20
2006,10,13,10,39,13.30
2006,10,13,10,40,13.30
2006,10,13,10,41,13.30
2006,10,13,10,42,13.30
2006,10,13,10,43,13.40
2006,10,13,10,44,13.40
2006,10,13,10,45,13.50
2006,10,13,10,46,13.50
2006,10,13,10,47,13.50
2006,10,13,10,48,13.50
2006,10,13,10,49,13.50
2006,10,13,10,50,13.60
2006,10,13,10,51,13.60
2006,10,13,10,52,13.60
2006,10,13,10,53,13.60
2006,10,13,10,54,13.70
2006,10,13,10,55,13.70
2006,10,13,10,56,13.70
2006,10,13,10,57,13.70
2006,10,13,10,58,13.70
2006,10,13,10,59,13.60
2006,10,13,11,00,13.60
2006,10,13,11,01,13.60
2006,10,13,11,02,13.60
2006,10,13,11,03,13.70
2006,10,13,11,04,13.70
2006,10,13,11,05,13.90
2006,10,13,11,06,13.90
2006,10,13,11,07,14.00
2006,10,13,11,08,14.00
2006,10,13,11,09,14.00
2006,10,13,11,10,14.10
2006,10,13,11,11,14.20
2006,10,13,11,12,14.20
2006,10,13,11,13,14.30
2006,10,13,11,14,14.30
2006,10,13,11,15,14.30
2006,10,13,11,16,14.30
2006,10,13,11,17,14.30
2006,10,13,11,18,14.30
2006,10,13,11,19,14.30
2006,10,13,11,20,14.40
2006,10,13,11,21,14.50
2006,10,13,11,22,14.50
2006,10,13,11,23,14.50
2006,10,13,11,24,14.50
2006,10,13,11,25,14.50
2006,10,13,11,26,14.50
2006,10,13,11,27,14.50
2006,10,13,11,28,14.60
2006,10,13,11,29,14.60
2006,10,13,11,30,14.60
2006,10,13,11,31,14.70
2006,10,13,11,32,14.80
2006,10,13,11,33,14.80
2006,10,13,11,34,14.80
2006,10,13,11,35,14.80
2006,10,13,11,36,14.80
2006,10,13,11,37,14.80
2006,10,13,11,38,14.90
2006,10,13,11,39,15.00
2006,10,13,11,40,15.00
2006,10,13,11,41,15.00
2006,10,13,11,42,15.00
2006,10,13,11,43,15.10
2006,10,13,11,44,15.10
2006,10,13,11,45,15.10
2006,10,13,11,46,15.10
2006,10,13,11,47,15.10
2006,10,13,11,48,15.20
2006,10,13,11,49,15.10
2006,10,13,11,50,15.00
2006,10,13,11,51,14.80
2006,10,13,11,52,14.80
2006,10,13,11,53,14.70
2006,10,13,11,54,14.70
2006,10,13,11,55,14.70
2006,10,13,11,56,14.80
2006,10,13,11,57,14.80
2006,10,13,11,58,14.80
2006,10,13,11,59,14.90
2006,10,13,12,00,14.80
2006,10,13,12,01,14.80
2006,10,13,12,02,14.90
2006,10,13,12,03,15.00
2006,10,13,12,04,15.00
2006,10,13,12,05,15.00
2006,10,13,12,06,15.00
2006,10,13,12,07,15.00
2006,10,13,12,08,15.10
2006,10,13,12,09,15.00
2006,10,13,12,10,14.90
2006,10,13,12,11,14.80
2006,10,13,12,12,14.90
2006,10,13,12,13,14.90
2006,10,13,12,14,14.80
2006,10,13,12,15,14.80
2006,10,13,12,16,14.80
2006,10,13,12,17,14.70
2006,10,13,12,18,14.70
2006,10,13,12,19,14.60
2006,10,13,12,20,14.70
2006,10,13,12,21,14.70
2006,10,13,12,22,14.80
2006,10,13,12,23,14.80
2006,10,13,12,24,14.80
2006,10,13,12,25,14.90
2006,10,13,12,26,15.00
2006,10,13,12,27,15.00
2006,10,13,12,28,15.10
2006,10,13,12,29,15.20
2006,10,13,12,30,15.30
2006,10,13,12,31,15.30
2006,10,13,12,32,15.30
2006,10,13,12,33,15.30
2006,10,13,12,34,15.30
2006,10,13,12,35,15.30
2006,10,13,12,36,15.40
2006,10,13,12,37,15.40
2006,10,13,12,38,15.50
2006,10,13,12,39,15.60
2006,10,13,12,40,15.60
2006,10,13,12,41,15.70
2006,10,13,12,42,15.70
2006,10,13,12,43,15.80
2006,10,13,12,44,15.80
2006,10,13,12,45,15.80
2006,10,13,12,46,15.90
2006,10,13,12,47,16.00
2006,10,13,12,48,16.10
2006,10,13,12,49,16.10
2006,10,13,12,50,16.10
2006,10,13,12,51,16.10
2006,10,13,12,52,15.90
2006,10,13,12,53,15.80
2006,10,13,12,54,15.80
2006,10,13,12,55,15.80
2006,10,13,12,56,15.70
2006,10,13,12,57,15.70
2006,10,13,12,58,15.60
2006,10,13,12,59,15.60
2006,10,13,13,00,15.50
2006,10,13,13,01,15.40
2006,10,13,13,02,15.40
2006,10,13,13,03,15.40
2006,10,13,13,04,15.40
2006,10,13,13,05,15.30
2006,10,13,13,06,15.30
2006,10,13,13,07,15.30
2006,10,13,13,08,15.30
2006,10,13,13,09,15.20
2006,10,13,13,10,15.30
2006,10,13,13,11,15.30
2006,10,13,13,12,15.30
2006,10,13,13,13,15.30
2006,10,13,13,14,15.30
2006,10,13,13,15,15.20
2006,10,13,13,16,15.20
2006,10,13,13,17,15.20
2006,10,13,13,18,15.20
2006,10,13,13,19,15.30
2006,10,13,13,20,15.30
2006,10,13,13,21,15.40
2006,10,13,13,22,15.40
2006,10,13,13,23,15.50
2006,10,13,13,24,15.50
2006,10,13,13,25,15.50
2006,10,13,13,26,15.60
2006,10,13,13,27,15.60
2006,10,13,13,28,15.70
2006,10,13,13,29,15.80
2006,10,13,13,30,15.80
2006,10,13,13,31,15.70
2006,10,13,13,32,15.70
2006,10,13,13,33,15.80
2006,10,13,13,34,15.80
2006,10,13,13,35,15.80
2006,10,13,13,36,15.80
2006,10,13,13,37,15.80
2006,10,13,13,38,15.90
2006,10,13,13,39,16.10
2006,10,13,13,40,16.10
2006,10,13,13,41,16.00
2006,10,13,13,42,15.80
2006,10,13,13,43,15.80
2006,10,13,13,44,15.60
2006,10,13,13,45,15.60
2006,10,13,13,46,15.60
2006,10,13,13,47,15.50
2006,10,13,13,48,15.30
2006,10,13,13,49,15.30
2006,10,13,13,50,15.10
2006,10,13,13,51,15.10
2006,10,13,13,52,15.10
2006,10,13,13,53,15.20
2006,10,13,13,54,15.20
2006,10,13,13,55,15.20
2006,10,13,13,56,15.20
2006,10,13,13,57,15.20
2006,10,13,13,58,15.20
2006,10,13,13,59,15.20
2006,10,13,14,00,15.30
2006,10,13,14,01,15.30
2006,10,13,14,02,15.30
2006,10,13,14,03,15.30
2006,10,13,14,04,15.30
2006,10,13,14,05,15.30
2006,10,13,14,06,15.30
2006,10,13,14,07,15.30
2006,10,13,14,08,15.30
2006,10,13,14,09,15.30
2006,10,13,14,10,15.20
2006,10,13,14,11,15.10
2006,10,13,14,12,15.00
2006,10,13,14,13,15.00
2006,10,13,14,14,15.00
2006,10,13,14,15,15.00
2006,10,13,14,16,14.90
2006,10,13,14,17,14.80
2006,10,13,14,18,14.80
2006,10,13,14,19,14.80
2006,10,13,14,20,14.80
2006,10,13,14,21,14.80
2006,10,13,14,22,14.80
2006,10,13,14,23,14.70
2006,10,13,14,24,14.80
2006,10,13,14,25,14.80
2006,10,13,14,26,14.80
2006,10,13,14,27,14.70
2006,10,13,14,28,14.70
2006,10,13,14,29,14.60
2006,10,13,14,30,14.60
2006,10,13,14,31,14.70
2006,10,13,14,32,14.70
2006,10,13,14,33,14.70
2006,10,13,14,34,14.80
2006,10,13,14,35,14.80
2006,10,13,14,36,14.80
2006,10,13,14,37,14.80
2006,10,13,14,38,14.70
2006,10,13,14,39,14.70
2006,10,13,14,40,14.60
2006,10,13,14,41,14.50
2006,10,13,14,42,14.50
2006,10,13,14,43,14.40
2006,10,13,14,44,14.30
2006,10,13,14,45,14.30
2006,10,13,14,46,14.30
2006,10,13,14,47,14.30
2006,10,13,14,48,14.30
2006,10,13,14,49,14.30
2006,10,13,14,50,14.30
2006,10,13,14,51,14.30
2006,10,13,14,52,14.30
2006,10,13,14,53,14.30
2006,10,13,14,54,14.30
2006,10,13,14,55,14.30
2006,10,13,14,56,14.40
2006,10,13,14,57,14.40
2006,10,13,14,58,14.50
2006,10,13,14,59,14.50
2006,10,13,15,00,14.50
2006,10,13,15,01,14.60
2006,10,13,15,02,14.60
2006,10,13,15,03,14.70
2006,10,13,15,04,14.70
2006,10,13,15,05,14.70
2006,10,13,15,06,14.70
2006,10,13,15,07,14.70
2006,10,13,15,08,14.70
2006,10,13,15,09,14.80
2006,10,13,15,10,14.80
2006,10,13,15,11,14.90
2006,10,13,15,12,14.90
2006,10,13,15,13,14.90
2006,10,13,15,14,14.90
2006,10,13,15,15,14.90
2006,10,13,15,16,15.00
2006,10,13,15,17,15.00
2006,10,13,15,18,15.10
2006,10,13,15,19,15.20
2006,10,13,15,20,15.30
2006,10,13,15,21,15.30
2006,10,13,15,22,15.30
2006,10,13,15,23,15.30
2006,10,13,15,24,15.30
2006,10,13,15,25,15.30
2006,10,13,15,26,15.30
2006,10,13,15,27,15.30
2006,10,13,15,28,15.30
2006,10,13,15,29,15.30
2006,10,13,15,30,15.30
2006,10,13,15,31,15.30
2006,10,13,15,32,15.30
2006,10,13,15,33,15.30
2006,10,13,15,34,15.30
2006,10,13,15,35,15.30
2006,10,13,15,36,15.30
2006,10,13,15,37,15.30
2006,10,13,15,38,15.40
2006,10,13,15,39,15.40
2006,10,13,15,40,15.40
2006,10,13,15,41,15.40
2006,10,13,15,42,15.40
2006,10,13,15,43,15.40
2006,10,13,15,44,15.40
2006,10,13,15,45,15.40
2006,10,13,15,46,15.30
2006,10,13,15,47,15.30
2006,10,13,15,48,15.30
2006,10,13,15,49,15.30
2006,10,13,15,50,15.30
2006,10,13,15,51,15.30
2006,10,13,15,52,15.30
2006,10,13,15,53,15.30
2006,10,13,15,54,15.40
2006,10,13,15,55,15.50
2006,10,13,15,56,15.50
2006,10,13,15,57,15.50
2006,10,13,15,58,15.60
2006,10,13,15,59,15.60
2006,10,13,16,00,15.70
2006,10,13,16,01,15.70
2006,10,13,16,02,15.70
2006,10,13,16,03,15.80
2006,10,13,16,04,15.80
2006,10,13,16,05,15.80
2006,10,13,16,06,15.80
2006,10,13,16,07,15.80
2006,10,13,16,08,15.80
2006,10,13,16,09,15.80
2006,10,13,16,10,15.80
2006,10,13,16,11,15.80
2006,10,13,16,12,15.80
2006,10,13,16,13,15.70
2006,10,13,16,14,15.70
2006,10,13,16,15,15.60
2006,10,13,16,16,15.60
2006,10,13,16,17,15.60
2006,10,13,16,18,15.60
2006,10,13,16,19,15.60
2006,10,13,16,20,15.70
2006,10,13,16,21,15.70
2006,10,13,16,22,15.70
2006,10,13,16,23,15.70
2006,10,13,16,24,15.70
2006,10,13,16,25,15.70
2006,10,13,16,26,15.70
2006,10,13,16,27,15.70
2006,10,13,16,28,15.60
2006,10,13,16,29,15.60
2006,10,13,16,30,15.60
2006,10,13,16,31,15.60
2006,10,13,16,32,15.50
2006,10,13,16,33,15.40
2006,10,13,16,34,15.20
2006,10,13,16,35,15.10
2006,10,13,16,36,15.00
2006,10,13,16,37,14.90
2006,10,13,16,38,14.80
2006,10,13,16,39,14.60
2006,10,13,16,40,14.50
2006,10,13,16,41,14.40
2006,10,13,16,42,14.30
2006,10,13,16,43,14.20
2006,10,13,16,44,14.10
2006,10,13,16,45,14.00
2006,10,13,16,46,13.90
2006,10,13,16,47,13.80
2006,10,13,16,48,13.70
2006,10,13,16,49,13.70
2006,10,13,16,50,13.60
2006,10,13,16,51,13.50
2006,10,13,16,52,13.50
2006,10,13,16,53,13.40
2006,10,13,16,54,13.30
2006,10,13,16,55,13.30
2006,10,13,16,56,13.30
2006,10,13,16,57,13.30
2006,10,13,16,58,13.20
2006,10,13,16,59,13.20
2006,10,13,17,00,13.20
2006,10,13,17,01,13.10
2006,10,13,17,02,13.10
2006,10,13,17,03,13.10
2006,10,13,17,04,13.10
2006,10,13,17,05,13.00
2006,10,13,17,06,13.00
2006,10,13,17,07,13.00
2006,10,13,17,08,13.00
2006,10,13,17,09,13.00
2006,10,13,17,10,13.00
2006,10,13,17,11,12.90
2006,10,13,17,12,12.90
2006,10,13,17,13,12.90
2006,10,13,17,14,12.90
2006,10,13,17,15,12.90
2006,10,13,17,16,12.80
2006,10,13,17,17,12.80
2006,10,13,17,18,12.80
2006,10,13,17,19,12.80
2006,10,13,17,20,12.70
2006,10,13,17,21,12.60
2006,10,13,17,22,12.60
2006,10,13,17,23,12.50
2006,10,13,17,24,12.50
2006,10,13,17,25,12.40
2006,10,13,17,26,12.30
2006,10,13,17,27,12.30
2006,10,13,17,28,12.30
2006,10,13,17,29,12.20
2006,10,13,17,30,12.10
2006,10,13,17,31,12.00
2006,10,13,17,32,11.90
2006,10,13,17,33,11.90
2006,10,13,17,34,11.80
2006,10,13,17,35,11.70
2006,10,13,17,36,11.60